OK2ZEO-5 Weather Reports


time (UTC)temp
C
wind
direction
speed
KPH
gust
KPH
rain 1hr
cm
rain 24hr
cm
rain mn
cm
humidity
%
barometer
mb
20260504223004 8 0 0.0 0.0 0.00 0.00 0.00 78 1013.4
20260504222717 9 0 0.0 0.0 0.00 0.00 0.00 78 1013.3
20260504222003 9 0 0.0 0.0 0.00 0.00 0.00 78 1013.4
20260504221719 9 0 0.0 0.0 0.00 0.00 0.00 78 1013.4
20260504221003 9 0 0.0 0.0 0.00 0.00 0.00 78 1013.5
20260504220717 9 0 0.0 0.0 0.00 0.00 0.00 78 1013.5
20260504220218 10 0 0.0 0.0 0.00 0.00 0.00 78 1013.6
20260504215503 10 0 0.0 0.0 0.00 0.00 0.00 78 1013.5
20260504215003 10 339 0.0 1.6 0.00 0.00 0.00 77 1013.5
20260504214503 11 339 0.0 1.6 0.00 0.00 0.00 77 1013.6
20260504214218 11 0 0.0 0.0 0.00 0.00 0.00 77 1013.6
20260504213503 11 0 0.0 0.0 0.00 0.00 0.00 77 1013.6
20260504213003 11 0 0.0 0.0 0.00 0.00 0.00 77 1013.6
20260504212503 11 0 0.0 0.0 0.00 0.00 0.00 77 1013.6
20260504212003 11 0 0.0 0.0 0.00 0.00 0.00 77 1013.7
20260504211503 11 0 0.0 0.0 0.00 0.00 0.00 76 1013.8
20260504211003 11 0 0.0 0.0 0.00 0.00 0.00 76 1013.8
20260504210716 11 0 0.0 0.0 0.00 0.00 0.00 76 1013.8
20260504210003 11 0 0.0 0.0 0.00 0.00 0.00 76 1013.8
20260504205503 12 0 0.0 0.0 0.00 0.00 0.00 75 1013.7
20260504205219 12 0 0.0 0.0 0.00 0.00 0.00 75 1013.8
20260504204504 12 0 0.0 0.0 0.00 0.00 0.00 75 1013.8
20260504204217 12 17 0.0 3.2 0.00 0.00 0.00 74 1013.8
20260504203503 12 17 0.0 3.2 0.00 0.00 0.00 74 1013.7
20260504203003 13 0 0.0 0.0 0.00 0.00 0.00 74 1013.8
20260504202716 13 0 0.0 0.0 0.00 0.00 0.00 73 1013.7
20260504202003 13 0 0.0 0.0 0.00 0.00 0.00 72 1013.7
20260504201503 13 0 0.0 0.0 0.00 0.00 0.00 72 1013.7
20260504201003 13 0 0.0 0.0 0.00 0.00 0.00 72 1013.8
20260504200503 13 0 0.0 0.0 0.00 0.00 0.00 72 1013.7
20260504200217 13 0 0.0 0.0 0.00 0.00 0.00 71 1013.7
20260504195503 13 0 0.0 0.0 0.00 0.00 0.00 71 1013.7
20260504195219 13 0 0.0 0.0 0.00 0.00 0.00 71 1013.6
20260504194503 14 0 0.0 0.0 0.00 0.00 0.00 70 1013.8
20260504194217 14 0 0.0 0.0 0.00 0.00 0.00 69 1013.8
20260504193503 15 0 0.0 0.0 0.00 0.00 0.00 68 1013.7
20260504193003 15 0 0.0 0.0 0.00 0.00 0.00 67 1013.7
20260504192503 15 0 0.0 0.0 0.00 0.00 0.00 66 1013.7
20260504192003 16 0 0.0 0.0 0.00 0.00 0.00 64 1013.7
20260504191503 16 0 0.0 0.0 0.00 0.00 0.00 63 1013.6
20260504191003 16 0 0.0 0.0 0.00 0.00 0.00 61 1013.6
20260504190503 17 0 0.0 0.0 0.00 0.00 0.00 59 1013.5
20260504190003 17 0 0.0 0.0 0.00 0.00 0.00 56 1013.5
20260504185503 18 0 0.0 0.0 0.00 0.00 0.00 54 1013.5
20260504185003 19 0 0.0 0.0 0.00 0.00 0.00 51 1013.4
20260504184503 19 0 0.0 0.0 0.00 0.00 0.00 49 1013.4
20260504184003 20 0 0.0 0.0 0.00 0.00 0.00 47 1013.4
20260504183503 20 0 0.0 0.0 0.00 0.00 0.00 46 1013.3
20260504183003 20 0 0.0 0.0 0.00 0.00 0.00 46 1013.2
20260504182719 20 0 0.0 0.0 0.00 0.00 0.00 46 1013.2
20260504182003 20 0 0.0 0.0 0.00 0.00 0.00 46 1013.2
20260504181503 20 0 0.0 0.0 0.00 0.00 0.00 46 1013.2
20260504181003 20 129 0.0 6.4 0.00 0.00 0.00 46 1013.1
20260504180504 20 133 1.6 6.4 0.00 0.00 0.00 45 1013.1
20260504180003 20 133 1.6 6.4 0.00 0.00 0.00 45 1013.1
20260504175503 21 129 0.0 4.8 0.00 0.00 0.00 45 1013.1
20260504175003 21 128 0.0 6.4 0.00 0.00 0.00 45 1013.1
20260504174503 21 127 0.0 6.4 0.00 0.00 0.00 44 1013.1
20260504174216 21 127 1.6 11.3 0.00 0.00 0.00 44 1013.1
20260504173503 21 127 1.6 11.3 0.00 0.00 0.00 44 1013.0
20260504173003 22 130 1.6 11.3 0.00 0.00 0.00 43 1013.0
20260504172503 22 129 3.2 12.9 0.00 0.00 0.00 42 1013.0
20260504172003 22 128 4.8 14.5 0.00 0.00 0.00 42 1013.0
20260504171503 22 128 4.8 14.5 0.00 0.00 0.00 42 1013.1
20260504171004 22 129 4.8 16.1 0.00 0.00 0.00 42 1013.0
20260504170503 22 128 6.4 16.1 0.00 0.00 0.00 41 1013.0
20260504150503 23 179 3.2 16.1 0.00 0.00 0.00 40 1013.3
20260504141003 23 188 8.0 22.5 0.00 0.00 0.00 41 1013.7
20260504140718 24 190 6.4 22.5 0.00 0.00 0.00 40 1013.7
20260504130503 23 175 6.4 22.5 0.00 0.00 0.00 42 1014.3
20260504110717 23 142 4.8 20.9 0.00 0.00 0.00 40 1015.0
20260504100503 21 174 1.6 16.1 0.00 0.00 0.00 44 1015.8
20260504082003 18 117 6.4 17.7 0.00 0.00 0.00 48 1016.0
20260504081503 18 119 8.0 19.3 0.00 0.00 0.00 49 1016.0
20260504081219 18 119 9.7 19.3 0.00 0.00 0.00 48 1016.0
20260504080503 18 121 8.0 17.7 0.00 0.00 0.00 47 1016.1
20260504080216 18 120 8.0 17.7 0.00 0.00 0.00 48 1015.9
20260504060215 13 0 0.0 0.0 0.00 0.00 0.00 60 1016.3
20260504050503 6 0 0.0 0.0 0.00 0.00 0.00 78 1016.4
20260504050003 6 0 0.0 0.0 0.00 0.00 0.00 78 1016.3
20260504045503 6 0 0.0 0.0 0.00 0.00 0.00 78 1016.4
20260504045003 6 0 0.0 0.0 0.00 0.00 0.00 79 1016.4
20260504044504 5 0 0.0 0.0 0.00 0.00 0.00 78 1016.3
20260504044003 5 0 0.0 0.0 0.00 0.00 0.00 78 1016.2
20260504043503 5 0 0.0 0.0 0.00 0.00 0.00 78 1016.1
20260504043003 5 0 0.0 0.0 0.00 0.00 0.00 78 1016.2
20260504042503 5 359 0.0 8.0 0.00 0.00 0.00 78 1016.2
20260504042219 5 355 0.0 8.0 0.00 0.00 0.00 78 1016.2
20260504041716 4 351 0.0 8.0 0.00 0.00 0.00 78 1016.2
20260504041003 4 329 0.0 1.6 0.00 0.00 0.00 78 1016.1
20260504040503 4 329 0.0 1.6 0.00 0.00 0.00 78 1016.2
20260504040003 4 329 0.0 1.6 0.00 0.00 0.00 78 1016.3
20260504035503 4 329 0.0 1.6 0.00 0.00 0.00 78 1016.3
20260504035003 4 329 0.0 1.6 0.00 0.00 0.00 78 1016.3
20260504034503 4 0 0.0 0.0 0.00 0.00 0.00 78 1016.3
20260504034003 4 0 0.0 0.0 0.00 0.00 0.00 78 1016.4
20260504033504 4 329 0.0 3.2 0.00 0.00 0.00 78 1016.3
20260504033003 4 329 0.0 3.2 0.00 0.00 0.00 78 1016.4
20260504032503 4 328 0.0 1.6 0.00 0.00 0.00 78 1016.4
20260504032003 4 328 0.0 1.6 0.00 0.00 0.00 77 1016.5
20260504031503 3 0 0.0 0.0 0.00 0.00 0.00 78 1016.4
20260504031003 3 0 0.0 0.0 0.00 0.00 0.00 78 1016.4
20260504030503 3 0 0.0 0.0 0.00 0.00 0.00 78 1016.4
20260504030003 3 0 0.0 0.0 0.00 0.00 0.00 78 1016.3
20260504025503 3 327 0.0 1.6 0.00 0.00 0.00 78 1016.3
20260504025216 3 325 0.0 4.8 0.00 0.00 0.00 78 1016.3
20260504024503 3 325 0.0 4.8 0.00 0.00 0.00 78 1016.4
20260504024218 3 319 0.0 3.2 0.00 0.00 0.00 78 1016.4
20260504023503 4 318 0.0 3.2 0.00 0.00 0.00 79 1016.3
20260504023216 4 318 0.0 3.2 0.00 0.00 0.00 79 1016.4
20260504022503 4 0 0.0 0.0 0.00 0.00 0.00 78 1016.4
20260504022218 4 0 0.0 0.0 0.00 0.00 0.00 78 1016.4
20260504021503 4 0 0.0 0.0 0.00 0.00 0.00 78 1016.4
20260504021003 4 0 0.0 0.0 0.00 0.00 0.00 78 1016.5
20260504020503 4 318 0.0 1.6 0.00 0.00 0.00 78 1016.4
20260504020003 4 318 0.0 1.6 0.00 0.00 0.00 78 1016.4
20260504015503 4 318 0.0 1.6 0.00 0.00 0.00 79 1016.4
20260504015003 4 318 0.0 1.6 0.00 0.00 0.00 78 1016.4
20260504014717 4 318 0.0 1.6 0.00 0.00 0.00 78 1016.4
20260504014003 4 318 0.0 1.6 0.00 0.00 0.00 78 1016.4
20260504013503 4 0 0.0 0.0 0.00 0.00 0.00 78 1016.5
20260504013003 4 0 0.0 0.0 0.00 0.00 0.00 78 1016.4
20260504012504 4 0 0.0 0.0 0.00 0.00 0.00 79 1016.4
20260504012003 5 0 0.0 0.0 0.00 0.00 0.00 79 1016.4
20260504011504 5 0 0.0 0.0 0.00 0.00 0.00 78 1016.3
20260504011003 5 318 0.0 1.6 0.00 0.00 0.00 79 1016.4
20260504010503 5 318 0.0 1.6 0.00 0.00 0.00 78 1016.3
20260504010003 5 318 0.0 1.6 0.00 0.00 0.00 78 1016.3
20260504005719 5 318 0.0 1.6 0.00 0.00 0.00 78 1016.3
20260504005003 5 0 0.0 0.0 0.00 0.00 0.00 78 1016.2
20260504004504 5 0 0.0 0.0 0.00 0.00 0.00 78 1016.3
20260504004003 5 0 0.0 0.0 0.00 0.00 0.00 78 1016.3
20260504003503 5 0 0.0 0.0 0.00 0.00 0.00 78 1016.3
20260504003003 5 0 0.0 0.0 0.00 0.00 0.00 78 1016.3
20260504002503 5 0 0.0 0.0 0.00 0.00 0.00 78 1016.3
20260504002003 5 0 0.0 0.0 0.00 0.00 0.00 78 1016.2
20260504001503 5 0 0.0 0.0 0.00 0.00 0.00 78 1016.3
20260504001003 5 0 0.0 0.0 0.00 0.00 0.00 78 1016.3
20260504000503 6 0 0.0 0.0 0.00 0.00 0.00 78 1016.4
20260504000003 6 0 0.0 0.0 0.00 0.00 0.00 78 1016.4
20260503235503 6 0 0.0 0.0 0.00 0.00 0.00 78 1016.4
20260503235003 6 0 0.0 0.0 0.00 0.00 0.00 78 1016.5
20260503234504 6 0 0.0 0.0 0.00 0.00 0.00 77 1016.5
20260503234003 6 0 0.0 0.0 0.00 0.00 0.00 77 1016.4
20260503233503 6 0 0.0 0.0 0.00 0.00 0.00 77 1016.4
20260503233003 7 0 0.0 0.0 0.00 0.00 0.00 76 1016.5
20260503232503 7 0 0.0 0.0 0.00 0.00 0.00 76 1016.5
20260503232003 7 0 0.0 0.0 0.00 0.00 0.00 76 1016.5
20260503231503 7 0 0.0 0.0 0.00 0.00 0.00 76 1016.5
20260503231003 7 0 0.0 0.0 0.00 0.00 0.00 76 1016.5
20260503230503 7 0 0.0 0.0 0.00 0.00 0.00 76 1016.5
20260503230004 7 0 0.0 0.0 0.00 0.00 0.00 75 1016.5
20260503225503 7 0 0.0 0.0 0.00 0.00 0.00 74 1016.5
20260503225003 7 231 0.0 1.6 0.00 0.00 0.00 74 1016.6
20260503224503 8 231 0.0 1.6 0.00 0.00 0.00 73 1016.5
20260503224003 8 0 0.0 0.0 0.00 0.00 0.00 72 1016.5
20260503223503 8 0 0.0 0.0 0.00 0.00 0.00 71 1016.5